Flag for China Weather past 2 weeks in Foochow, Fujian, China

Now
79 °F

Passing clouds.


Feels Like: 82 °F
Forecast: 73 / 94 °F
Wind: 3 mph from West

Location: Fuzhou Airport

Current Time: Jul 28, 2015 at 11:45:29 PM

Latest Report: Jul 28, 2015 at 11:00 PM


Visibility: N/A

Pressure: 29.86 "Hg

Humidity: 79%

Dew point: 72 °F

Location of FoochowLocation

Historic Weather in Foochow — Graph

°F

Foochow temperature yesterday

Maximum temperature yesterday: 90 °F (at 12:00 PM)
Minimum temperature yesterday: 79 °F (at 6:00 AM)
Average temperature yesterday: 84 °F

Past Weeks' High & Low Weather Summary

 TemperatureHumidityPressure
High91 °F (Jul 28, 2:00 PM)100% (Jul 14, 5:00 AM)29.89 "Hg (Jul 14, 5:00 AM)
Low77 °F (Jul 14, 5:00 AM)59% (Jul 17, 11:00 AM)29.53 "Hg (Jul 16, 2:00 PM)
Average82 °F81%29.71 "Hg
* Reported Jul 13 10:00 PM — Jul 28 10:00 PM, Foochow, Weather by CustomWeather, © 2015

Note: Actual official high and low records may vary slightly from our data, if they occured in-between our weather recording intervals... More about our weather records

Advertising

Foochow weather history for previous 24 hours

 ConditionsComfort  
Time TempWeatherWind HumidityBarometerVisibility
10:00 PM
Tue, Jul 28
79 °FClear.3 mph79%29.86 "Hg10 mi
9:00 PM81 °FClear.6 mph70%29.89 "Hg10 mi
8:00 PM81 °FClear.6 mph70%29.86 "Hg10 mi
7:00 PM81 °FClear.6 mph70%29.83 "Hg10 mi
6:00 PM81 °FPassing clouds.13 mph70%29.83 "HgN/A
5:00 PM82 °FScattered clouds.10 mph62%29.83 "HgN/A
4:00 PM86 °FThunderstorms. Passing clouds.10 mph59%29.83 "HgN/A
3:00 PM90 °FPassing clouds.15 mph67%29.77 "HgN/A
2:00 PM91 °FPassing clouds.15 mph67%29.80 "Hg6 mi
1:00 PM90 °FPassing clouds.15 mph71%29.83 "Hg6 mi
12:00 PM90 °FPassing clouds.15 mph71%29.83 "Hg4 mi
11:00 AM90 °FClear.13 mph71%29.86 "Hg4 mi
10:00 AM88 °FClear.13 mph75%29.86 "Hg4 mi
9:00 AM88 °FClear.6 mph75%29.86 "Hg4 mi
8:00 AM86 °FPassing clouds.8 mph79%29.86 "Hg5 mi
7:00 AM82 °FPassing clouds.8 mph84%29.86 "Hg5 mi
6:00 AM79 °FScattered clouds.6 mph94%29.83 "Hg4 mi
5:00 AM79 °FClear.3 mph94%29.83 "Hg5 mi
4:00 AM79 °FClear.8 mph94%29.83 "Hg5 mi
3:00 AM79 °FClear.6 mph94%29.83 "Hg5 mi
2:00 AM81 °FClear.3 mph89%29.83 "Hg5 mi
1:00 AM82 °FPassing clouds.6 mph84%29.83 "HgN/A
12:00 AM82 °FPassing clouds.8 mph84%29.86 "HgN/A
11:00 PM
Mon, Jul 27
82 °FClear.6 mph84%29.86 "Hg10 mi
Weather by CustomWeather, © 2015

See weather overviewHow to use our weather pages